Location: Venezia
(45.4390°N, 12.3270°E)
Time: 09:49:15
(UTC+01:00)

ISS - Visible Passes

Search period start: 22 January 2019 00:00
Search period end: 01 February 2019 00:00
Orbit: 404 x 410 km, 51.6° (Epoch: 23 January)

Date Brightness Start Highest point End Pass type
(mag) Time Alt. Az. Time Alt. Az. Time Alt. Az.
22 Jan -1.4 19:28:48 10° SW 19:30:01 21° SW 19:30:01 21° SW visible
23 Jan -3.0 18:37:45 10° SSW 18:40:48 35° SE 18:41:04 34° SE visible
24 Jan -2.1 17:47:03 10° S 17:49:36 21° SE 17:52:02 11° E visible
24 Jan -2.3 19:22:35 10° WSW 19:24:46 37° W 19:24:46 37° W visible
25 Jan -3.9 18:31:12 10° SW 18:34:30 79° SSE 18:35:40 37° ENE visible
25 Jan -0.2 20:08:16 10° WNW 20:08:23 11° WNW 20:08:23 11° WNW visible
26 Jan -3.2 17:40:00 10° SW 17:43:10 45° SE 17:46:21 10° ENE visible
26 Jan -2.5 19:16:37 10° W 19:19:13 36° NW 19:19:13 36° NW visible
27 Jan -3.4 18:25:01 10° WSW 18:28:16 54° NNW 18:29:59 24° NE visible
27 Jan -0.4 20:02:23 10° WNW 20:02:42 12° WNW 20:02:42 12° WNW visible
28 Jan -2.3 19:10:44 10° WNW 19:13:25 29° NNW 19:13:25 29° NNW visible
29 Jan -2.7 18:19:03 10° W 18:22:08 35° NNW 18:24:07 18° NE visible
29 Jan -0.7 19:56:21 10° NW 19:56:49 13° NW 19:56:49 13° NW visible
30 Jan -2.3 19:04:45 10° WNW 19:07:29 26° N 19:07:29 26° N visible
31 Jan -2.4 18:13:05 10° WNW 18:16:00 28° N 18:18:09 15° NE visible
31 Jan -0.9 19:50:04 10° NW 19:50:52 15° NW 19:50:52 15° NW visible
